Hourly Weather Roundup
Issued by NWS Central Illinois

Home | Current Version | Previous Version | Text Only | Print | Product List | Glossary On
Versions: 1 2 3 4 5 6 7 8 9 10 11 12 13 14 15 16 17 18 19 20 21 22 23 24 25 26 27 28 29 30 31 32 33 34 35 36 37 38 39 40 41 42 43 44 45 46 47 48 49 50
000
NZUS43 KILX 260410
HWRILX

AREA WEATHER ROUNDUP
NATIONAL WEATHER SERVICE, LINCOLN IL
1100 PM CDT MON JUL 25 2016


CITY           SKY/WX    TMP DP  RH WIND       PRES   REMARKS
BLOOMINGTON    CLOUDY    75  68  78 CALM      30.05
CHAMPAIGN      CLOUDY    74  70  87 N6        30.03S
DANVILLE       CLOUDY    73  72  98 N3        30.00S
DECATUR        MOCLDY    75  71  87 NE5       30.02S
EFFINGHAM      CLOUDY    77  76  96 CALM      30.03R
FLORA          CLOUDY    78  77  96 CALM      30.01S HX  80
GALESBURG      CLOUDY    69  68  96 CALM      30.05R
JACKSONVILLE   PTCLDY    71  69  95 CALM      30.03S
LACON          CLOUDY    70  68  93 CALM      30.02S
LAWRENCEVILLE  CLOUDY    77  76  96 CALM      30.01R
LITCHFIELD     NOT AVBL
$$


CITY           SKY/WX    TMP DP  RH WIND       PRES   REMARKS
LINCOLN        PTCLDY    73  72  98 CALM      30.02S
MACOMB         MOCLDY    68  67  96 CALM      30.06R
MATTOON        PTCLDY    76  72  87 NW3       30.02R
MT CARMEL AP   CLOUDY    75  74  96 CALM      30.00F FOG
OLNEY-NOBLE AP CLOUDY    75  75 100 CALM      30.01S FOG
PARIS          PTCLDY    74  74 100 CALM      30.03R
PEORIA         PTCLDY    73  70  90 CALM      30.03R
PONTIAC        NOT AVBL
RANTOUL        NOT AVBL
ROBINSON       PTCLDY    75  74  99 CALM      30.02R FOG
SPRINGFIELD    MOCLDY    74  71  91 CALM      30.03R
TAYLORVILLE    MOCLDY    73  73 100 MISG      30.02S
$$

...REGIONAL REPORTS...


CITY           SKY/WX    TMP DP  RH WIND       PRES   REMARKS
CHICAGO O`HARE PTCLDY    79  63  57 NE3       30.02R HX  80
KANKAKEE       CLOUDY    72  70  94 CALM      30.03S
MOLINE         CLOUDY    71  66  84 CALM      30.03S
MOUNT STERLING PTCLDY    71  68  92 NW3       30.04R
MOUNT VERNON   MOCLDY    75  72  88 CALM      30.00S
PITTSFIELD     PTCLDY    73  71  96 CALM      30.05S
QUINCY         PTCLDY    73  69  87 CALM      30.05R
ROCKFORD       CLEAR     77  64  64 CALM      30.04S
$$


CITY           SKY/WX    TMP DP  RH WIND       PRES   REMARKS
BURLINGTON     CLOUDY    71  68  90 N3        30.04S
CEDAR RAPIDS   CLEAR     69  66  90 CALM      30.05S
DES MOINES     CLEAR     77  64  64 CALM      30.08R
KIRKSVILLE     PTCLDY    68  66  93 CALM      30.08R
OTTUMWA        CLEAR     68  65  90 CALM      30.06S
ST LOUIS       NOT AVBL
$$


CITY           SKY/WX    TMP DP  RH WIND       PRES   REMARKS
TERRE HAUTE    MOCLDY    76  74  93 CALM      30.01S
EVANSVILLE     PTCLDY    75  71  87 W3        30.00R
INDIANAPOLIS   CLOUDY    79  70  74 N9        30.02S HX  82
LAFAYETTE      MOCLDY    70  66  87 CALM      30.01S
MADISON        CLEAR     69  65  86 CALM      30.04R
MILWAUKEE      PTCLDY    76  64  66 SW6       30.02R
$$





USA.gov is the U.S. government's official web portal to all federal, state and local government web resources and services.